| time (UTC) | temp F | wind direction | speed MPH | gust MPH | rain 1hr in | rain 24hr in | rain mn in | humidity % | barometer mb |
| 20260508085802 | 48 | 225 | 2.0 | 2.0 | 0.00 | 0.00 | 0.00 | 99 | 4252.1 |
| 20260508084801 | 48 | 227 | 1.0 | 1.0 | 0.00 | 0.00 | 0.00 | 99 | 4252.3 |
| 20260508083756 | 48 | 223 | 1.0 | 2.0 | 0.00 | 0.00 | 0.00 | 99 | 4252.0 |
| 20260508082753 | 48 | 230 | 2.0 | 2.0 | 0.00 | 0.00 | 0.00 | 99 | 4251.9 |
| 20260508081748 | 49 | 226 | 2.0 | 2.0 | 0.00 | 0.00 | 0.00 | 99 | 4252.0 |
| 20260508080748 | 49 | 224 | 2.0 | 2.0 | 0.00 | 0.00 | 0.00 | 99 | 4252.0 |
| 20260508075748 | 49 | 229 | 1.0 | 1.0 | 0.00 | 0.00 | 0.00 | 99 | 4252.0 |
| 20260508074748 | 49 | 222 | 1.0 | 1.0 | 0.00 | 0.00 | 0.00 | 99 | 4252.0 |
| 20260508073748 | 49 | 222 | 1.0 | 1.0 | 0.00 | 0.00 | 0.00 | 99 | 4252.4 |
| 20260508072748 | 49 | 228 | 1.0 | 1.0 | 0.00 | 0.00 | 0.00 | 99 | 4252.3 |
| 20260508071748 | 50 | 223 | 1.0 | 1.0 | 0.00 | 0.00 | 0.00 | 99 | 4251.9 |
| 20260508070743 | 50 | 218 | 1.0 | 1.0 | 0.00 | 0.00 | 0.00 | 99 | 4252.8 |
| 20260508065738 | 50 | 245 | 1.0 | 1.0 | 0.00 | 0.00 | 0.00 | 99 | 4252.3 |
| 20260508064734 | 51 | 233 | 1.0 | 1.0 | 0.00 | 0.00 | 0.00 | 99 | 4252.3 |
| 20260508063729 | 50 | 218 | 2.0 | 2.0 | 0.00 | 0.00 | 0.00 | 99 | 4252.4 |
| 20260508062729 | 51 | 228 | 1.0 | 1.0 | 0.00 | 0.00 | 0.00 | 99 | 4252.7 |
| 20260508061729 | 51 | 229 | 2.0 | 2.0 | 0.00 | 0.00 | 0.00 | 99 | 4252.5 |
| 20260508060729 | 51 | 226 | 1.0 | 1.0 | 0.00 | 0.00 | 0.00 | 99 | 4252.7 |
| 20260508055727 | 51 | 227 | 1.0 | 2.0 | 0.00 | 0.00 | 0.00 | 99 | 4252.8 |
| 20260508054727 | 51 | 228 | 1.0 | 2.0 | 0.00 | 0.00 | 0.00 | 99 | 4252.9 |
| 20260508053728 | 51 | 220 | 3.0 | 3.0 | 0.00 | 0.00 | 0.00 | 99 | 4252.8 |
| 20260508052728 | 51 | 245 | 1.0 | 1.0 | 0.00 | 0.00 | 0.00 | 99 | 4252.8 |
| 20260508051727 | 52 | 233 | 2.0 | 2.0 | 0.00 | 0.00 | 0.00 | 98 | 4252.8 |
| 20260508050725 | 52 | 238 | 0.0 | 1.0 | 0.00 | 0.00 | 0.00 | 98 | 4252.7 |
| 20260508045723 | 52 | 235 | 1.0 | 1.0 | 0.00 | 0.20 | 0.20 | 98 | 4252.8 |
| 20260508044719 | 52 | 215 | 2.0 | 2.0 | 0.00 | 0.20 | 0.20 | 98 | 4252.6 |
| 20260508043717 | 52 | 221 | 2.0 | 2.0 | 0.00 | 0.20 | 0.20 | 98 | 4253.1 |
| 20260508042717 | 52 | 248 | 0.0 | 0.0 | 0.00 | 0.20 | 0.20 | 97 | 4252.9 |
| 20260508041717 | 53 | 228 | 1.0 | 2.0 | 0.00 | 0.20 | 0.20 | 98 | 4252.7 |
| 20260508040716 | 53 | 234 | 0.0 | 1.0 | 0.00 | 0.20 | 0.20 | 97 | 4252.5 |
| 20260508035711 | 53 | 228 | 1.0 | 2.0 | 0.00 | 0.20 | 0.20 | 97 | 4252.7 |
| 20260508034710 | 53 | 231 | 1.0 | 2.0 | 0.00 | 0.20 | 0.20 | 97 | 4252.8 |
| 20260508033710 | 53 | 228 | 2.0 | 2.0 | 0.00 | 0.20 | 0.20 | 98 | 4252.8 |
| 20260508032706 | 54 | 223 | 1.0 | 1.0 | 0.00 | 0.20 | 0.20 | 97 | 4252.7 |
| 20260508031706 | 54 | 224 | 1.0 | 1.0 | 0.00 | 0.20 | 0.20 | 96 | 4252.6 |
| 20260508030704 | 54 | 220 | 2.0 | 2.0 | 0.00 | 0.20 | 0.20 | 96 | 4252.7 |
| 20260508025704 | 55 | 228 | 1.0 | 1.0 | 0.00 | 0.20 | 0.20 | 95 | 4252.6 |
| 20260508024702 | 55 | 229 | 1.0 | 1.0 | 0.00 | 0.20 | 0.20 | 94 | 4252.4 |
| 20260508023701 | 55 | 233 | 0.0 | 1.0 | 0.00 | 0.20 | 0.20 | 92 | 4252.4 |
| 20260508022700 | 56 | 208 | 2.0 | 2.0 | 0.00 | 0.20 | 0.20 | 91 | 4252.3 |
| 20260508021700 | 57 | 239 | 2.0 | 2.0 | 0.00 | 0.20 | 0.20 | 90 | 4252.3 |
| 20260508020659 | 57 | 225 | 1.0 | 2.0 | 0.00 | 0.20 | 0.20 | 89 | 4252.0 |
| 20260508015654 | 57 | 220 | 1.0 | 1.0 | 0.00 | 0.20 | 0.20 | 88 | 4252.1 |
| 20260508014653 | 58 | 225 | 2.0 | 2.0 | 0.00 | 0.20 | 0.20 | 86 | 4252.0 |
| 20260508013652 | 59 | 223 | 1.0 | 1.0 | 0.00 | 0.20 | 0.20 | 83 | 4251.8 |
| 20260508012646 | 59 | 223 | 1.0 | 1.0 | 0.00 | 0.20 | 0.20 | 78 | 4251.9 |
| 20260508011641 | 60 | 224 | 0.0 | 0.0 | 0.00 | 0.20 | 0.20 | 74 | 4251.6 |
| 20260508010641 | 60 | 207 | 0.0 | 1.0 | 0.00 | 0.20 | 0.20 | 73 | 4251.5 |
| 20260508005641 | 61 | 224 | 0.0 | 1.0 | 0.00 | 0.20 | 0.20 | 74 | 4251.6 |
| 20260508004639 | 62 | 245 | 1.0 | 1.0 | 0.00 | 0.20 | 0.20 | 71 | 4251.4 |
| 20260508003639 | 62 | 229 | 1.0 | 1.0 | 0.00 | 0.20 | 0.20 | 68 | 4251.2 |
| 20260508002638 | 63 | 229 | 2.0 | 2.0 | 0.00 | 0.20 | 0.20 | 69 | 4251.4 |
| 20260508001637 | 64 | 241 | 0.0 | 1.0 | 0.00 | 0.20 | 0.20 | 65 | 4251.4 |
| 20260508000635 | 64 | 235 | 1.0 | 1.0 | 0.00 | 0.20 | 0.20 | 62 | 4251.1 |
| 20260507235635 | 64 | 238 | 2.0 | 2.0 | 0.00 | 0.20 | 0.20 | 63 | 4251.1 |
| 20260507234635 | 65 | 55 | 1.0 | 1.0 | 0.00 | 0.20 | 0.20 | 61 | 4251.0 |
| 20260507233635 | 66 | 265 | 1.0 | 1.0 | 0.00 | 0.20 | 0.20 | 63 | 4251.0 |
| 20260507232635 | 66 | 325 | 0.0 | 0.0 | 0.00 | 0.20 | 0.20 | 62 | 4250.9 |
| 20260507231635 | 66 | 317 | 1.0 | 1.0 | 0.00 | 0.20 | 0.20 | 61 | 4250.9 |
| 20260507230634 | 66 | 357 | 0.0 | 1.0 | 0.00 | 0.20 | 0.20 | 58 | 4250.7 |
| 20260507225631 | 66 | 273 | 1.0 | 1.0 | 0.00 | 0.20 | 0.20 | 57 | 4250.9 |
| 20260507224629 | 66 | 359 | 4.0 | 5.0 | 0.00 | 0.20 | 0.20 | 58 | 4251.0 |
| 20260507223628 | 67 | 2 | 0.0 | 1.0 | 0.00 | 0.20 | 0.20 | 60 | 4250.9 |
| 20260507222627 | 67 | 2 | 3.0 | 3.0 | 0.00 | 0.20 | 0.20 | 58 | 4251.1 |
| 20260507221626 | 67 | 0 | 0.0 | 0.0 | 0.00 | 0.20 | 0.20 | 57 | 4251.1 |
| 20260507220626 | 67 | 1 | 4.0 | 6.0 | 0.00 | 0.20 | 0.20 | 59 | 4251.0 |
| 20260507215625 | 67 | 4 | 8.0 | 9.0 | 0.00 | 0.20 | 0.20 | 58 | 4250.7 |
| 20260507214625 | 67 | 8 | 7.0 | 8.0 | 0.00 | 0.20 | 0.20 | 59 | 4250.7 |
| 20260507213624 | 67 | 332 | 3.0 | 3.0 | 0.00 | 0.20 | 0.20 | 56 | 4250.9 |
| 20260507212623 | 67 | 336 | 1.0 | 1.0 | 0.00 | 0.20 | 0.20 | 57 | 4250.7 |
| 20260507211622 | 67 | 350 | 5.0 | 6.0 | 0.00 | 0.20 | 0.20 | 56 | 4250.8 |
| 20260507210621 | 67 | 345 | 5.0 | 6.0 | 0.00 | 0.20 | 0.20 | 56 | 4250.9 |
| 20260507205620 | 66 | 4 | 3.0 | 3.0 | 0.00 | 0.20 | 0.20 | 60 | 4250.8 |
| 20260507204618 | 66 | 6 | 8.0 | 9.0 | 0.00 | 0.20 | 0.20 | 58 | 4251.0 |
| 20260507203614 | 66 | 354 | 9.0 | 10.0 | 0.00 | 0.20 | 0.20 | 59 | 4251.1 |
| 20260507202612 | 66 | 349 | 4.0 | 5.0 | 0.00 | 0.20 | 0.20 | 64 | 4251.2 |
| 20260507201610 | 66 | 355 | 8.0 | 9.0 | 0.00 | 0.20 | 0.20 | 63 | 4251.2 |
| 20260507200608 | 66 | 354 | 7.0 | 8.0 | 0.00 | 0.20 | 0.20 | 62 | 4251.3 |
| 20260507195608 | 66 | 334 | 9.0 | 10.0 | 0.00 | 0.20 | 0.20 | 65 | 4251.1 |
| 20260507194607 | 66 | 348 | 8.0 | 9.0 | 0.00 | 0.20 | 0.20 | 65 | 4251.4 |
| 20260507193606 | 66 | 346 | 9.0 | 10.0 | 0.00 | 0.20 | 0.20 | 64 | 4251.2 |
| 20260507192605 | 66 | 349 | 8.0 | 9.0 | 0.00 | 0.20 | 0.20 | 63 | 4251.4 |
| 20260507191603 | 66 | 359 | 5.0 | 7.0 | 0.00 | 0.20 | 0.20 | 66 | 4251.4 |
| 20260507190603 | 66 | 352 | 5.0 | 7.0 | 0.00 | 0.20 | 0.20 | 64 | 4251.5 |
| 20260507185600 | 65 | 347 | 10.0 | 11.0 | 0.00 | 0.20 | 0.20 | 68 | 4251.3 |
| 20260507184555 | 66 | 350 | 7.0 | 8.0 | 0.00 | 0.20 | 0.20 | 66 | 4251.3 |
| 20260507183554 | 65 | 349 | 9.0 | 11.0 | 0.00 | 0.20 | 0.20 | 68 | 4251.3 |
| 20260507182553 | 65 | 11 | 4.0 | 5.0 | 0.00 | 0.20 | 0.20 | 67 | 4251.2 |
| 20260507181552 | 65 | 347 | 6.0 | 7.0 | 0.00 | 0.20 | 0.20 | 67 | 4251.3 |
| 20260507180551 | 65 | 349 | 6.0 | 7.0 | 0.00 | 0.20 | 0.20 | 66 | 4251.5 |
| 20260507175550 | 65 | 355 | 5.0 | 7.0 | 0.00 | 0.20 | 0.20 | 69 | 4251.6 |
| 20260507174550 | 64 | 45 | 3.0 | 3.0 | 0.00 | 0.20 | 0.20 | 72 | 4251.4 |
| 20260507173545 | 64 | 26 | 6.0 | 7.0 | 0.00 | 0.20 | 0.20 | 65 | 4251.6 |
| 20260507172544 | 64 | 15 | 3.0 | 3.0 | 0.00 | 0.20 | 0.20 | 66 | 4251.7 |
| 20260507171542 | 64 | 33 | 5.0 | 6.0 | 0.00 | 0.20 | 0.20 | 69 | 4251.8 |
| 20260507170542 | 64 | 2 | 12.0 | 13.0 | 0.00 | 0.20 | 0.20 | 72 | 4252.1 |
| 20260507165541 | 63 | 16 | 7.0 | 9.0 | 0.00 | 0.20 | 0.20 | 72 | 4252.4 |
| 20260507164539 | 64 | 31 | 3.0 | 3.0 | 0.00 | 0.20 | 0.20 | 72 | 4252.5 |
| 20260507163534 | 63 | 15 | 6.0 | 8.0 | 0.00 | 0.20 | 0.20 | 69 | 4252.6 |
| 20260507162532 | 63 | 39 | 7.0 | 8.0 | 0.00 | 0.20 | 0.20 | 71 | 4252.5 |
| 20260507161531 | 62 | 9 | 9.0 | 9.0 | 0.00 | 0.20 | 0.20 | 70 | 4252.8 |
| 20260507160530 | 62 | 32 | 7.0 | 8.0 | 0.00 | 0.20 | 0.20 | 73 | 4252.6 |
| 20260507155528 | 62 | 12 | 11.0 | 13.0 | 0.00 | 0.20 | 0.20 | 72 | 4252.7 |
| 20260507154527 | 61 | 9 | 9.0 | 11.0 | 0.00 | 0.20 | 0.20 | 75 | 4253.0 |
| 20260507153527 | 61 | 17 | 11.0 | 13.0 | 0.00 | 0.20 | 0.20 | 77 | 4252.8 |
| 20260507152525 | 61 | 16 | 10.0 | 11.0 | 0.00 | 0.20 | 0.20 | 76 | 4252.5 |
| 20260507151524 | 61 | 20 | 6.0 | 7.0 | 0.00 | 0.20 | 0.20 | 81 | 4252.8 |
| 20260507150524 | 60 | 356 | 6.0 | 8.0 | 0.00 | 0.20 | 0.20 | 84 | 4252.6 |
| 20260507145521 | 59 | 19 | 10.0 | 13.0 | 0.00 | 0.20 | 0.20 | 83 | 4252.6 |
| 20260507144516 | 59 | 32 | 5.0 | 7.0 | 0.00 | 0.20 | 0.20 | 84 | 4252.7 |
| 20260507143517 | 58 | 50 | 7.0 | 8.0 | 0.00 | 0.20 | 0.20 | 83 | 4252.6 |
| 20260507142515 | 57 | 52 | 6.0 | 8.0 | 0.00 | 0.20 | 0.20 | 84 | 4252.7 |
| 20260507141515 | 57 | 12 | 7.0 | 8.0 | 0.00 | 0.20 | 0.20 | 87 | 4252.5 |
| 20260507140514 | 57 | 46 | 6.0 | 8.0 | 0.00 | 0.20 | 0.20 | 87 | 4252.4 |
| 20260507135514 | 56 | 39 | 9.0 | 11.0 | 0.00 | 0.20 | 0.20 | 86 | 4252.5 |
| 20260507134514 | 56 | 36 | 7.0 | 11.0 | 0.00 | 0.20 | 0.20 | 90 | 4252.3 |
| 20260507133511 | 56 | 26 | 6.0 | 7.0 | 0.07 | 0.20 | 0.20 | 90 | 4252.5 |
| 20260507132506 | 56 | 82 | 3.0 | 5.0 | 0.00 | 0.19 | 0.19 | 93 | 4252.4 |
| 20260507131504 | 55 | 9 | 8.0 | 9.0 | 0.00 | 0.19 | 0.19 | 92 | 4251.8 |
| 20260507130504 | 55 | 7 | 6.0 | 9.0 | 0.00 | 0.19 | 0.19 | 94 | 4251.9 |
| 20260507125501 | 55 | 42 | 7.0 | 8.0 | 0.00 | 0.19 | 0.19 | 94 | 4251.7 |
| 20260507124459 | 55 | 50 | 4.0 | 6.0 | 0.00 | 0.19 | 0.19 | 95 | 4251.7 |
| 20260507123455 | 55 | 36 | 9.0 | 11.0 | 0.00 | 0.19 | 0.19 | 95 | 4251.6 |
| 20260507122452 | 55 | 52 | 5.0 | 8.0 | 0.00 | 0.19 | 0.19 | 95 | 4251.4 |
| 20260507121450 | 55 | 22 | 5.0 | 8.0 | 0.00 | 0.19 | 0.19 | 95 | 4251.6 |
| 20260507120449 | 55 | 345 | 6.0 | 7.0 | 0.00 | 0.19 | 0.19 | 96 | 4251.5 |
| 20260507115448 | 55 | 33 | 7.0 | 9.0 | 0.00 | 0.19 | 0.19 | 97 | 4251.4 |
| 20260507114445 | 55 | 12 | 7.0 | 9.0 | 0.00 | 0.19 | 0.19 | 97 | 4250.8 |
| 20260507113446 | 54 | 9 | 5.0 | 6.0 | 0.00 | 0.19 | 0.19 | 97 | 4250.8 |
| 20260507112440 | 54 | 31 | 5.0 | 7.0 | 0.00 | 0.19 | 0.19 | 97 | 4250.8 |
| 20260507111440 | 55 | 15 | 7.0 | 8.0 | 0.00 | 0.19 | 0.19 | 97 | 4250.7 |
| 20260507110438 | 55 | 13 | 6.0 | 8.0 | 0.00 | 0.19 | 0.19 | 97 | 4250.6 |
| 20260507105438 | 54 | 356 | 5.0 | 6.0 | 0.00 | 0.19 | 0.19 | 98 | 4250.2 |
| 20260507104437 | 54 | 19 | 3.0 | 5.0 | 0.00 | 0.19 | 0.19 | 98 | 4250.0 |
| 20260507103435 | 54 | 342 | 6.0 | 7.0 | 0.00 | 0.19 | 0.19 | 97 | 4250.1 |
| 20260507102434 | 54 | 351 | 4.0 | 6.0 | 0.00 | 0.19 | 0.19 | 98 | 4250.2 |
| 20260507101431 | 54 | 11 | 5.0 | 7.0 | 0.00 | 0.19 | 0.19 | 99 | 4250.2 |
| 20260507100431 | 54 | 29 | 5.0 | 6.0 | 0.00 | 0.19 | 0.19 | 99 | 4250.3 |
| 20260507095427 | 53 | 2 | 5.0 | 7.0 | 0.00 | 0.19 | 0.19 | 99 | 4249.8 |
| 20260507094426 | 54 | 30 | 4.0 | 5.0 | 0.00 | 0.19 | 0.19 | 99 | 4249.8 |
| 20260507093421 | 54 | 47 | 3.0 | 3.0 | 0.00 | 0.19 | 0.19 | 99 | 4249.7 |
| 20260507092420 | 53 | 25 | 1.0 | 2.0 | 0.00 | 0.19 | 0.19 | 99 | 4249.7 |
| 20260507091420 | 54 | 39 | 4.0 | 5.0 | 0.00 | 0.19 | 0.19 | 99 | 4249.3 |